Regional Weather Roundup
Issued by NWS Sioux Falls, SD

Home | Current Version | Previous Version | Text Only | Print | Product List | Glossary Off
Versions: 1 2 3 4 5 6 7 8 9 10 11 12 13 14 15 16 17 18 19 20 21 22 23 24 25 26 27 28 29 30 31 32 33 34 35 36 37 38 39 40 41 42 43 44 45 46 47 48 49 50

000
ASUS43 KFSD 302002
RWRFSD

WEATHER ROUNDUP FOR SE SOUTH DAKOTA/SW MINNESOTA/NW IOWA
NATIONAL WEATHER SERVICE SIOUX FALLS SD
300 PM CDT SUN AUG 30 2015

NOTE: "FAIR" INDICATES FEW OR NO CLOUDS BELOW 12,000 FEET WITH NO
SIGNIFICANT WEATHER AND OR OBSTRUCTIONS TO VISIBILITY.


SDZ038>040-050-052>070-302100-
SOUTHEAST SOUTH DAKOTA

CITY           SKY/WX    TMP DP  RH WIND       PRES   REMARKS
BROOKINGS      SUNNY     77  66  69 S15G21    29.93F
CHAMBERLAIN    SUNNY     88  61  39 S15G23    29.81F
HURON          SUNNY     84  67  56 SE16      29.82F
MADISON        FAIR      75  70  83 S15G22    29.93F
MITCHELL       SUNNY     83  70  64 S17       29.87F
SIOUX FALLS    CLOUDY    75  65  70 S16       29.94F
WINNER         FAIR      95  50  21 S18G33    29.81F HAZE
YANKTON        SUNNY     79  68  69 SE16      29.92F
$$

MNZ071-072-080-081-089-090-097-098-302100-
SOUTHWEST MINNESOTA

CITY           SKY/WX    TMP DP  RH WIND       PRES   REMARKS
FAIRMONT       SUNNY     77  64  65 S15       29.98F
JACKSON        SUNNY     77  68  73 S14       30.00S
LUVERNE        SUNNY     77  64  65 S12       29.97F
MARSHALL       SUNNY     81  63  54 S16G23    29.93F
MONTEVIDEO     SUNNY     82  70  65 SW14G20   29.91F
PIPESTONE      SUNNY     75  64  69 S13       29.96S
REDWOOD FALLS  SUNNY     82  67  60 S14       29.92F
TRACY          SUNNY     79  68  69 S12G17    29.94F
WINDOM         SUNNY     79  64  61 S12G17    29.97F
WORTHINGTON    SUNNY     75  64  69 S14       29.97F
$$

IAZ001>003-012>014-020>022-031-032-NEZ013-014-SDZ071-302100-
NORTHWEST IOWA

CITY           SKY/WX    TMP DP  RH WIND       PRES   REMARKS
DENISON        CLOUDY    70  66  88 S14       30.02F
ESTHERVILLE    SUNNY     75  66  73 S13       30.00F
SIOUX CITY     NOT AVBL
SPENCER        SUNNY     77  66  68 S10       30.00F
$$

ABBREVIATIONS USED IN REMARKS
   TC - TEMPERATURE IN CELSIUS
  WCI - WIND CHILL INDEX
   HX - HEAT INDEX
  VSB - VISIBILITY




USA.gov is the U.S. government's official web portal to all federal, state and local government web resources and services.